ZHIHUI TIANWANG-1 01B

导读 | 星芒AI

ZHIHUI TIANWANG-1 01B 是一颗中国发射的智能卫星,属于“智绘天网”系列,主要用于遥感和地球观测任务。该卫星具备高分辨率成像能力和智能数据处理功能,能够支持环境监测、灾害预警、资源调查等多个领域应用。其先进的人工智能算法可实现图像的实时分析与处理,提高数据利用效率。该卫星的发射标志着中国在智能遥感技术领域的进一步发展和应用拓展。

基本信息
目录编号:
59706
目录名称:
ZHIHUI TIANWANG-1 01B
国际标识:
2024-087B
轨道中心:
EARTH
卫星名称:
ZHIHUI TIANWANG-1 01B
卫星全名:
--
卫星状态:
在轨 (已飞行538 天)
发射日期:
2024-05-09 UTC
国别 :
中国 (CN)
星等 :
--
轨道信息
数据来源 国际轨道数据
星历时间: 2025-10-26T15:16:11+0800
3天前
查看轨道信息
半长轴: 26560.049km
偏心率: 0.0016898
轨道倾角: 53.121°
近地点辐角 187.908°
升交点赤经 180.218°
平近点角 172.155°
近地点: 20137.032km
远地点: 20226.796km
周期: 717.965分钟
每日圈数: 2.00567
详细信息
使用方式:
暂无
2D轨道图
3D轨道图
轨道高度分析图
轨道倾角分析图
轨道综合分析图
查看轨道综合分析图